This is the latest recevied weather packets stored in our database for station/object vk4zu-13. If no packets are shown the sender has not sent any weather packets the latest 10 day(s).
| Time | Temp. | Humidity | Pressure | Rain* | Wind** | Luminosity | Snow |
|---|---|---|---|---|---|---|---|
| 1777335891 | 22.78° C | 72% | 1023.4 hPa | 0 mm | - | 211 W/m² | - |
| 1777335804 | 22.78° C | 70% | 1023.5 hPa | 0 mm | - | 193 W/m² | - |
| 1777335743 | 22.78° C | 71% | 1023.5 hPa | 0 mm | - | 348 W/m² | - |
| 1777335679 | 22.78° C | 68% | 1023.5 hPa | 0 mm | - | 348 W/m² | - |
| 1777335618 | 22.78° C | 70% | 1023.5 hPa | 0 mm | - | 348 W/m² | - |
| 1777335555 | 22.78° C | 68% | 1023.6 hPa | 0 mm | - | 703 W/m² | - |
| 1777335496 | 22.78° C | 72% | 1023.7 hPa | 0 mm | - | 703 W/m² | - |
| 1777335431 | 22.78° C | 72% | 1023.7 hPa | 0 mm | - | 703 W/m² | - |
| 1777335370 | 22.78° C | 72% | 1023.7 hPa | 0 mm | - | 638 W/m² | - |
| 1777335312 | 22.78° C | 72% | 1023.6 hPa | 0 mm | - | 707 W/m² | - |
| 1777335251 | 22.22° C | 71% | 1023.6 hPa | 0 mm | - | 707 W/m² | - |
| 1777335188 | 22.22° C | 72% | 1023.6 hPa | 0 mm | - | 707 W/m² | - |
| 1777335127 | 22.22° C | 72% | 1023.7 hPa | 0 mm | - | 707 W/m² | - |
| 1777335063 | 22.22° C | 73% | 1023.7 hPa | 0 mm | - | 707 W/m² | - |
| 1777335003 | 22.22° C | 73% | 1023.6 hPa | 0 mm | - | 707 W/m² | - |
| 1777334936 | 21.67° C | 74% | 1023.7 hPa | 0 mm | - | 707 W/m² | - |
| 1777334862 | 21.67° C | 72% | 1023.7 hPa | 0 mm | - | 707 W/m² | - |
| 1777334798 | 21.67° C | 72% | 1023.6 hPa | 0 mm | - | 707 W/m² | - |
| 1777334739 | 22.22° C | 72% | 1023.6 hPa | 0 mm | - | 707 W/m² | - |
| 1777334676 | 22.22° C | 74% | 1023.7 hPa | 0 mm | - | 707 W/m² | - |
| 1777334611 | 22.22° C | 72% | 1023.6 hPa | 0 mm | - | 603 W/m² | - |
| 1777334536 | 22.22° C | 71% | 1023.7 hPa | 0 mm | - | 603 W/m² | - |
| 1777334467 | 22.22° C | 72% | 1023.7 hPa | 0 mm | - | 603 W/m² | - |
* Rain latest hour (hover to see other rain measurements)
** Current wind speed in m/s (hover to see current wind gust speed)